Weather History for Sulphur Springs, TX

Change the Weather History Date:

Tuesday, February 11, 2014

  Actual Average (KGVT) Record (KGVT)
Temperature  
Mean Temperature 33 °F -  
Max Temperature 34 °F 56 °F 71 °F (1999)
Min Temperature 32 °F 42 °F 17 °F (2011)
Degree Days  
Heating Degree Days 32    
Moisture  
Dew Point 27 °F    
Average Humidity 78    
Maximum Humidity 92    
Minimum Humidity 61    
Precipitation  
Precipitation 0.02 in - - ()
Sea Level Pressure  
Sea Level Pressure 30.29 in    
Wind  
Wind Speed 9 mph (NNE)    
Max Wind Speed 15 mph    
Max Gust Speed 20 mph    
Visibility 8 miles    
Events Rain    
Averages and records for this station are not official NWS values.
T = Trace of Precipitation, MM = Missing Value Source: NWS Daily Summary

Daily Weather History Graph

Daily Weather History Graph

Search for Another Location

Airport:

Trip Planner

Search our weather history database for the weather conditions in past years. The results will help you decide how hot, cold, wet, or windy it might be!

Date:

Astronomy

Feb. 11, 2014 Rise Set
Actual Time 7:09 AM CST 6:03 PM CST
Civil Twilight 6:44 AM CST 6:29 PM CST
Nautical Twilight 6:15 AM CST 6:58 PM CST
Astronomical Twilight 5:46 AM CST 7:27 PM CST
Moon 3:29 PM CST (2/11) 4:43 AM CST (2/11)
Length of Visible Light 11h 45m
Length of Day
10h 54m
Waxing Gibbous, 91% of the Moon is Illuminated
Feb 11
Waxing Gibbous
Feb 14
Full
Feb 22
Last Quarter
Mar 1
New
Mar 8
First Quarter

Hourly Weather History & Observations

Time (CST) Temp. Windchill Dew Point Humidity Pressure Visibility Wind Dir Wind Speed Gust Speed Precip Events Conditions
12:15 AM 33.3 °F 24.1 °F 31.1 °F 92% 30.29 in 5.0 mi NNE 12.7 mph - N/A   Overcast
12:35 AM 33.3 °F 25.1 °F 30.9 °F 91% 30.29 in 5.0 mi North 10.4 mph - N/A   Overcast
12:55 AM 33.3 °F 25.1 °F 30.9 °F 91% 30.29 in 5.0 mi North 10.4 mph - N/A   Overcast
1:15 AM 33.3 °F 24.6 °F 30.6 °F 90% 30.29 in 5.0 mi North 11.5 mph - N/A   Overcast
1:35 AM 33.3 °F 24.6 °F 30.2 °F 89% 30.30 in 7.0 mi North 11.5 mph - N/A   Overcast
1:55 AM 33.3 °F 24.6 °F 30.2 °F 89% 30.30 in 7.0 mi North 11.5 mph - N/A   Overcast
2:15 AM 33.3 °F 25.7 °F 30.2 °F 89% 30.30 in 7.0 mi North 9.2 mph - N/A   Overcast
2:35 AM 33.3 °F 26.4 °F 30.0 °F 88% 30.30 in 7.0 mi NNE 8.1 mph - N/A   Mostly Cloudy
2:55 AM 33.1 °F 25.5 °F 29.3 °F 86% 30.29 in 7.0 mi NNE 9.2 mph - N/A   Mostly Cloudy
3:15 AM 33.1 °F 25.5 °F 29.3 °F 86% 30.28 in 7.0 mi North 9.2 mph - N/A   Overcast
3:35 AM 33.1 °F 25.5 °F 28.9 °F 85% 30.27 in 7.0 mi NNE 9.2 mph - N/A   Overcast
3:55 AM 32.9 °F 25.3 °F 28.8 °F 85% 30.28 in 7.0 mi NNE 9.2 mph - N/A   Overcast
4:15 AM 32.9 °F 25.3 °F 29.1 °F 86% 30.29 in 7.0 mi North 9.2 mph - N/A   Overcast
4:35 AM 32.9 °F 24.7 °F 28.8 °F 85% 30.29 in 7.0 mi North 10.4 mph - N/A   Overcast
4:55 AM 32.9 °F 24.7 °F 28.8 °F 85% 30.30 in 7.0 mi North 10.4 mph - N/A   Overcast
5:15 AM 32.9 °F 25.3 °F 28.9 °F 85% 30.31 in 7.0 mi North 9.2 mph - N/A   Overcast
5:35 AM 32.9 °F 25.3 °F 28.6 °F 84% 30.32 in 10.0 mi North 9.2 mph - N/A   Overcast
5:55 AM 32.9 °F 23.7 °F 28.4 °F 84% 30.31 in 7.0 mi North 12.7 mph - N/A   Overcast
6:15 AM 32.4 °F 24.0 °F 28.4 °F 85% 30.31 in 7.0 mi North 10.4 mph - N/A   Overcast
6:35 AM 32.0 °F 22.5 °F 28.2 °F 86% 30.30 in 7.0 mi NNE 12.7 mph - N/A   Overcast
6:55 AM 32.0 °F 23.0 °F 28.2 °F 86% 30.31 in 7.0 mi North 11.5 mph - N/A   Overcast
7:15 AM 32.0 °F 23.0 °F 28.2 °F 86% 30.32 in 7.0 mi North 11.5 mph - N/A   Overcast
7:35 AM 32.0 °F 23.0 °F 28.4 °F 87% 30.33 in 7.0 mi North 11.5 mph - N/A   Overcast
7:55 AM 32.0 °F 24.2 °F 28.4 °F 87% 30.33 in 7.0 mi North 9.2 mph - N/A   Overcast
8:15 AM 32.5 °F 24.8 °F 28.8 °F 86% 30.34 in 7.0 mi North 9.2 mph - N/A   Overcast
8:35 AM 33.1 °F 24.9 °F 27.9 °F 81% 30.35 in 10.0 mi NE 10.4 mph - N/A   Overcast
8:55 AM 33.6 °F 26.2 °F 25.2 °F 71% 30.36 in 10.0 mi NE 9.2 mph - N/A   Overcast
9:15 AM 33.8 °F 26.4 °F 24.8 °F 70% 30.35 in 10.0 mi NE 9.2 mph - N/A   Overcast
9:35 AM 34.2 °F 26.2 °F 25.0 °F 69% 30.35 in 10.0 mi NE 10.4 mph - N/A   Overcast
9:55 AM 34.0 °F 25.5 °F 23.9 °F 67% 30.35 in 10.0 mi NE 11.5 mph - N/A   Mostly Cloudy
10:15 AM 34.0 °F 25.5 °F 23.7 °F 66% 30.36 in 10.0 mi NNE 11.5 mph - N/A   Mostly Cloudy
10:35 AM 34.3 °F 25.5 °F 23.5 °F 65% 30.35 in 10.0 mi NE 12.7 mph 17.3 mph N/A   Scattered Clouds
10:55 AM 34.0 °F 27.2 °F 22.1 °F 62% 30.36 in 10.0 mi NE 8.1 mph - N/A   Mostly Cloudy
11:15 AM 34.7 °F 25.9 °F 22.5 °F 61% 30.35 in 10.0 mi NE 12.7 mph - N/A   Overcast
11:35 AM 34.0 °F 25.5 °F 23.4 °F 65% 30.34 in 10.0 mi NE 11.5 mph - N/A   Mostly Cloudy
11:55 AM 34.0 °F 24.2 °F 23.5 °F 66% 30.31 in 10.0 mi NE 15.0 mph 19.6 mph N/A   Scattered Clouds
12:15 PM 34.0 °F 25.5 °F 21.9 °F 61% 30.30 in 10.0 mi NE 11.5 mph - N/A   Clear
12:35 PM 33.3 °F 24.6 °F 21.6 °F 62% 30.29 in 10.0 mi NE 11.5 mph - N/A   Light Drizzle
12:55 PM - - - N/A% - - North - - N/A   Unknown
1:15 PM 34.0 °F 26.0 °F 22.5 °F 63% 30.28 in 10.0 mi ENE 10.4 mph - N/A   Light Drizzle
1:35 PM 32.4 °F 24.6 °F 23.7 °F 70% 30.26 in 7.0 mi NE 9.2 mph - N/A   Overcast
2:15 PM 32.2 °F 25.0 °F 24.3 °F 73% 30.23 in 7.0 mi NE 8.1 mph - N/A Rain Rain
2:35 PM 32.0 °F 25.6 °F 24.6 °F 74% 30.24 in 5.0 mi NNE 6.9 mph - 0.01 in Rain Light Rain
2:55 PM 32.0 °F - 24.4 °F 74% 30.24 in 5.0 mi Calm Calm - 0.01 in Rain Light Rain
3:15 PM 32.2 °F - 24.3 °F 73% 30.25 in 10.0 mi Calm Calm - 0.01 in   Light Drizzle
3:35 PM 32.4 °F - 24.4 °F 73% 30.26 in 10.0 mi Calm Calm - 0.01 in   Overcast
3:55 PM 32.9 °F - 25.3 °F 74% 30.26 in 10.0 mi Calm Calm - 0.01 in   Overcast
4:15 PM 32.9 °F - 24.6 °F 72% 30.26 in 10.0 mi Calm Calm - N/A   Overcast
4:35 PM 32.9 °F 29.8 °F 25.9 °F 75% 30.26 in 10.0 mi ESE 3.5 mph - N/A   Overcast
4:55 PM 32.9 °F 28.5 °F 25.3 °F 74% 30.25 in 10.0 mi ESE 4.6 mph - N/A   Overcast
5:35 PM 32.5 °F 29.3 °F 25.5 °F 75% 30.27 in 10.0 mi SE 3.5 mph - N/A   Overcast
5:55 PM 32.5 °F - 25.9 °F 76% 30.27 in 10.0 mi Calm Calm - N/A   Overcast
6:15 PM 32.5 °F - 25.5 °F 75% 30.27 in 10.0 mi Calm Calm - N/A   Overcast
6:35 PM 32.5 °F - 25.7 °F 76% 30.27 in 10.0 mi Calm Calm - N/A   Overcast
6:55 PM 32.4 °F - 25.3 °F 75% 30.27 in 10.0 mi Calm Calm - N/A   Overcast
7:15 PM 32.4 °F 29.1 °F 25.7 °F 76% 30.27 in 10.0 mi East 3.5 mph - N/A   Overcast
7:55 PM 32.2 °F 28.9 °F 26.4 °F 79% 30.28 in 10.0 mi East 3.5 mph - N/A   Overcast
8:15 PM 32.2 °F 27.7 °F 26.8 °F 80% 30.29 in 10.0 mi NNE 4.6 mph - N/A   Overcast
8:35 PM 32.2 °F 27.7 °F 25.2 °F 75% 30.30 in 10.0 mi North 4.6 mph - N/A   Overcast
8:55 PM 32.9 °F 29.8 °F 26.1 °F 76% 30.30 in 10.0 mi NNE 3.5 mph - N/A   Overcast
9:15 PM 32.9 °F - 25.0 °F 73% 30.30 in 10.0 mi Calm Calm - N/A   Overcast
9:35 PM 32.7 °F 27.3 °F 25.7 °F 75% 30.29 in 10.0 mi North 5.8 mph - N/A   Overcast
9:55 PM 32.9 °F 25.3 °F 27.3 °F 80% 30.28 in 10.0 mi North 9.2 mph - N/A   Overcast
10:15 PM 32.5 °F 28.1 °F 28.2 °F 84% 30.27 in 10.0 mi NE 4.6 mph - N/A   Overcast
10:55 PM 32.2 °F 28.9 °F 25.0 °F 75% 30.25 in 10.0 mi East 3.5 mph - N/A   Overcast
11:15 PM 32.2 °F 28.9 °F 23.9 °F 72% 30.25 in 10.0 mi NE 3.5 mph - N/A   Overcast
11:55 PM 32.7 °F 28.3 °F 27.0 °F 79% 30.24 in 10.0 mi North 4.6 mph - N/A   Overcast